AAL1129 KMIA-SKRG

Flight info

Callsign AAL1129
Flight time 2h 50m
Altitude 35000
Route GWAVA2 URSUS UP406 PUTUL DCT SIA DCT SUDSA DCT AKPEK AKPEK4C
Aircraft B738/M-SDE2E3FGHIRWXY/LB1

Departure

Time 2026-05-08 16:52
Airport Miami International Airport (KMIA)

Arrival

Time 2026-05-08 19:42
Airport Jose Maria Córdova International Airport (SKRG)
Time Latitude Longitude Altitude Speed Heading
2026-05-08 15:48 25.79788 -80.27246 14 ft 0 kts
2026-05-08 16:37 25.79787 -80.27246 14 ft 1 kts
2026-05-08 16:38 25.79764 -80.27248 16 ft 4 kts
2026-05-08 16:38 25.79737 -80.27252 16 ft 4 kts 23°
2026-05-08 16:38 25.79724 -80.27261 14 ft 4 kts 48°
2026-05-08 16:38 25.79731 -80.27234 14 ft 4 kts 85°
2026-05-08 16:39 25.79732 -80.27207 14 ft 1 kts 88°
2026-05-08 16:43 25.79732 -80.27200 14 ft 3 kts 87°
2026-05-08 16:43 25.79734 -80.27162 14 ft 7 kts 87°
2026-05-08 16:43 25.79746 -80.27102 14 ft 9 kts 47°
2026-05-08 16:43 25.79803 -80.27047 14 ft 12 kts 42°
2026-05-08 16:44 25.79873 -80.26998 16 ft 12 kts 19°
2026-05-08 16:44 25.79948 -80.27005 14 ft 12 kts 309°
2026-05-08 16:44 25.79996 -80.27078 16 ft 12 kts 308°
2026-05-08 16:44 25.80066 -80.27110 15 ft 11 kts 339°
2026-05-08 16:45 25.80083 -80.27189 15 ft 11 kts 267°
2026-05-08 16:45 25.80079 -80.27272 15 ft 11 kts 268°
2026-05-08 16:45 25.80076 -80.27364 17 ft 13 kts 267°
2026-05-08 16:45 25.80071 -80.27478 14 ft 16 kts 267°
2026-05-08 16:46 25.80065 -80.27616 14 ft 19 kts 267°
2026-05-08 16:46 25.80059 -80.27771 14 ft 21 kts 267°
2026-05-08 16:46 25.80051 -80.27940 13 ft 23 kts 268°
2026-05-08 16:46 25.80044 -80.28121 13 ft 24 kts 267°
2026-05-08 16:47 25.80036 -80.28309 14 ft 25 kts 267°
2026-05-08 16:47 25.80028 -80.28504 14 ft 26 kts 267°
2026-05-08 16:47 25.80020 -80.28697 15 ft 24 kts 268°
2026-05-08 16:47 25.80013 -80.28877 15 ft 23 kts 267°
2026-05-08 16:48 25.80006 -80.29051 15 ft 22 kts 267°
2026-05-08 16:48 25.79999 -80.29221 15 ft 22 kts 267°
2026-05-08 16:48 25.79992 -80.29400 14 ft 24 kts 266°
2026-05-08 16:48 25.79983 -80.29591 13 ft 25 kts 268°
2026-05-08 16:49 25.79976 -80.29775 13 ft 23 kts 267°
2026-05-08 16:49 25.79970 -80.29931 12 ft 13 kts 271°
2026-05-08 16:49 25.79990 -80.30015 13 ft 11 kts 287°
2026-05-08 16:49 25.80011 -80.30096 13 ft 11 kts 286°
2026-05-08 16:50 25.80063 -80.30134 13 ft 10 kts 24°
2026-05-08 16:50 25.80073 -80.30100 13 ft 1 kts 85°
2026-05-08 16:50 25.80073 -80.30095 13 ft 1 kts 85°
2026-05-08 16:50 25.80074 -80.30077 13 ft 5 kts 87°
2026-05-08 16:51 25.80081 -80.29893 13 ft 53 kts 87°
2026-05-08 16:51 25.80109 -80.29257 17 ft 110 kts 87°
2026-05-08 16:51 25.80152 -80.28244 13 ft 154 kts 87°
2026-05-08 16:51 25.80225 -80.26942 202 ft 175 kts 85°
2026-05-08 16:52 25.80220 -80.25624 771 ft 175 kts 100°
2026-05-08 16:52 25.79663 -80.24437 1285 ft 176 kts 136°
2026-05-08 16:52 25.78680 -80.23593 1807 ft 176 kts 143°
2026-05-08 16:52 25.77688 -80.22789 2395 ft 178 kts 144°
2026-05-08 16:53 25.75695 -80.21025 3510 ft 185 kts 141°
2026-05-08 16:53 25.74682 -80.20080 3898 ft 203 kts 142°
2026-05-08 16:53 25.73392 -80.19290 4060 ft 221 kts 167°
2026-05-08 16:54 25.71818 -80.19111 4244 ft 235 kts 179°
2026-05-08 16:54 25.70125 -80.19038 4404 ft 253 kts 179°
2026-05-08 16:54 25.68294 -80.18981 4659 ft 270 kts 180°
2026-05-08 16:54 25.66407 -80.19079 5254 ft 273 kts 187°
2026-05-08 16:55 25.64511 -80.19354 5879 ft 277 kts 188°
2026-05-08 16:55 25.62588 -80.19619 6480 ft 280 kts 181°
2026-05-08 16:55 25.60705 -80.19092 7046 ft 284 kts 151°
2026-05-08 16:55 25.59004 -80.17969 7717 ft 286 kts 148°
2026-05-08 16:56 25.57294 -80.16808 8283 ft 291 kts 148°
2026-05-08 16:56 25.55559 -80.15630 8910 ft 294 kts 148°
2026-05-08 16:56 25.53801 -80.14445 9512 ft 298 kts 149°
2026-05-08 16:56 25.52022 -80.13255 10162 ft 300 kts 149°
2026-05-08 16:57 25.50192 -80.12036 10465 ft 317 kts 149°
2026-05-08 16:57 25.48267 -80.10760 10625 ft 335 kts 149°
2026-05-08 16:57 25.46211 -80.09402 10761 ft 353 kts 149°
2026-05-08 16:57 25.44057 -80.07980 11034 ft 365 kts 149°
2026-05-08 16:58 25.41861 -80.06534 11536 ft 369 kts 149°
2026-05-08 16:58 25.39643 -80.05074 12131 ft 370 kts 149°
2026-05-08 16:58 25.37424 -80.03614 12732 ft 372 kts 149°
2026-05-08 16:58 25.35187 -80.02143 13269 ft 376 kts 149°
2026-05-08 16:59 25.32955 -80.00676 13776 ft 380 kts 150°
2026-05-08 16:59 25.30667 -79.99173 14270 ft 385 kts 150°
2026-05-08 16:59 25.28344 -79.97648 14742 ft 391 kts 150°
2026-05-08 16:59 25.25997 -79.96103 15255 ft 395 kts 149°
2026-05-08 17:00 25.23656 -79.94484 15784 ft 399 kts 148°
2026-05-08 17:00 25.21314 -79.92814 16284 ft 403 kts 148°
2026-05-08 17:00 25.18954 -79.91118 16792 ft 406 kts 148°
2026-05-08 17:00 25.16562 -79.89402 17273 ft 410 kts 148°
2026-05-08 17:01 25.14153 -79.87683 17735 ft 414 kts 148°
2026-05-08 17:01 25.11719 -79.85953 18208 ft 418 kts 148°
2026-05-08 17:01 25.09291 -79.84231 18659 ft 422 kts 148°
2026-05-08 17:01 25.06811 -79.82477 19096 ft 425 kts 148°
2026-05-08 17:02 25.04308 -79.80706 19532 ft 428 kts 148°
2026-05-08 17:02 25.01793 -79.78927 19996 ft 430 kts 149°
2026-05-08 17:02 24.99258 -79.77135 20345 ft 435 kts 149°
2026-05-08 17:02 24.96698 -79.75328 20720 ft 438 kts 149°
2026-05-08 17:03 24.94125 -79.73510 21125 ft 441 kts 149°
2026-05-08 17:03 24.91535 -79.71682 21533 ft 443 kts 149°
2026-05-08 17:03 24.88925 -79.69842 21840 ft 447 kts 149°
2026-05-08 17:03 24.86291 -79.67987 22206 ft 450 kts 149°
2026-05-08 17:04 24.83646 -79.66123 22585 ft 452 kts 149°
2026-05-08 17:04 24.80990 -79.64253 22922 ft 455 kts 149°
2026-05-08 17:04 24.78344 -79.62389 23224 ft 458 kts 149°
2026-05-08 17:04 24.75650 -79.60491 23514 ft 462 kts 149°
2026-05-08 17:05 24.72937 -79.58582 23838 ft 464 kts 149°
2026-05-08 17:05 24.70208 -79.56664 24147 ft 466 kts 149°
2026-05-08 17:05 24.67467 -79.54737 24440 ft 469 kts 149°
2026-05-08 17:05 24.64705 -79.52797 24763 ft 471 kts 149°
2026-05-08 17:06 24.61937 -79.50854 25083 ft 473 kts 149°
2026-05-08 17:06 24.59162 -79.48906 25399 ft 474 kts 149°
2026-05-08 17:06 24.56408 -79.46974 25694 ft 476 kts 149°
2026-05-08 17:06 24.53577 -79.44989 26003 ft 477 kts 149°
2026-05-08 17:07 24.50809 -79.43049 26276 ft 479 kts 149°
2026-05-08 17:07 24.47995 -79.41078 26552 ft 480 kts 149°
2026-05-08 17:07 24.45163 -79.39097 26804 ft 482 kts 149°
2026-05-08 17:07 24.42330 -79.37114 27043 ft 484 kts 149°
2026-05-08 17:08 24.39482 -79.35123 27294 ft 485 kts 149°
2026-05-08 17:08 24.36634 -79.33132 27537 ft 487 kts 149°
2026-05-08 17:08 24.33767 -79.31129 27762 ft 489 kts 149°
2026-05-08 17:08 24.30899 -79.29127 27979 ft 490 kts 149°
2026-05-08 17:09 24.28994 -79.27789 28112 ft 491 kts 149°
2026-05-08 17:09 24.25155 -79.25046 28384 ft 494 kts 148°
2026-05-08 17:09 24.23252 -79.23674 28528 ft 495 kts 148°
2026-05-08 17:09 24.20366 -79.21593 28749 ft 496 kts 148°
2026-05-08 17:10 24.17480 -79.19515 28970 ft 497 kts 148°
2026-05-08 17:10 24.14576 -79.17429 29188 ft 498 kts 149°
2026-05-08 17:10 24.11666 -79.15343 29383 ft 500 kts 149°
2026-05-08 17:10 24.08755 -79.13260 29629 ft 500 kts 149°
2026-05-08 17:11 24.05846 -79.11179 29948 ft 498 kts 149°
2026-05-08 17:11 24.02949 -79.09108 30293 ft 496 kts 149°
2026-05-08 17:11 23.99995 -79.07182 30561 ft 493 kts 159°
2026-05-08 17:11 23.96732 -79.06145 30749 ft 488 kts 173°
2026-05-08 17:12 23.93427 -79.05572 31081 ft 486 kts 173°
2026-05-08 17:12 23.90086 -79.04977 31372 ft 485 kts 173°
2026-05-08 17:12 23.86748 -79.04358 31615 ft 486 kts 172°
2026-05-08 17:12 23.83418 -79.03720 31888 ft 485 kts 172°
2026-05-08 17:13 23.80095 -79.03068 32163 ft 484 kts 172°
2026-05-08 17:13 23.76781 -79.02411 32428 ft 484 kts 172°
2026-05-08 17:13 23.73506 -79.01761 32696 ft 483 kts 172°
2026-05-08 17:13 23.70196 -79.01103 32981 ft 483 kts 172°
2026-05-08 17:14 23.66896 -79.00447 33275 ft 482 kts 172°
2026-05-08 17:14 23.63602 -78.99795 33547 ft 481 kts 172°
2026-05-08 17:14 23.60296 -78.99143 33798 ft 481 kts 172°
2026-05-08 17:14 23.57010 -78.98496 34023 ft 480 kts 172°
2026-05-08 17:15 23.53714 -78.97847 34248 ft 481 kts 172°
2026-05-08 17:15 23.50459 -78.97205 34502 ft 480 kts 172°
2026-05-08 17:15 23.47170 -78.96559 34786 ft 479 kts 172°
2026-05-08 17:15 23.43894 -78.95914 35034 ft 478 kts 172°
2026-05-08 17:16 23.37303 -78.94616 35056 ft 481 kts 171°
2026-05-08 17:16 23.30735 -78.93325 35047 ft 477 kts 171°
2026-05-08 17:17 23.24209 -78.92043 35054 ft 475 kts 171°
2026-05-08 17:17 23.17709 -78.90768 35054 ft 473 kts 171°
2026-05-08 17:18 23.11284 -78.89504 35058 ft 472 kts 171°
2026-05-08 17:18 23.04783 -78.88230 35057 ft 473 kts 171°
2026-05-08 17:19 22.98275 -78.86955 35062 ft 476 kts 171°
2026-05-08 17:19 22.91770 -78.85685 35061 ft 479 kts 171°
2026-05-08 17:20 22.85197 -78.84396 35060 ft 481 kts 171°
2026-05-08 17:20 22.78603 -78.83104 35055 ft 482 kts 171°
2026-05-08 17:21 22.71994 -78.81812 35058 ft 483 kts 171°
2026-05-08 17:21 22.65360 -78.80517 35057 ft 484 kts 171°
2026-05-08 17:22 22.58765 -78.79230 35055 ft 485 kts 171°
2026-05-08 17:22 22.52115 -78.77934 35051 ft 484 kts 171°
2026-05-08 17:23 22.45490 -78.76649 35052 ft 482 kts 171°
2026-05-08 17:23 22.38926 -78.75375 35043 ft 481 kts 171°
2026-05-08 17:24 22.32334 -78.74098 35045 ft 480 kts 171°
2026-05-08 17:24 22.25755 -78.72821 35044 ft 479 kts 171°
2026-05-08 17:25 22.19209 -78.71552 35045 ft 477 kts 171°
2026-05-08 17:25 22.12674 -78.70286 35047 ft 477 kts 171°
2026-05-08 17:26 22.06131 -78.69022 35050 ft 477 kts 171°
2026-05-08 17:26 21.99618 -78.67764 35048 ft 478 kts 171°
2026-05-08 17:27 21.93057 -78.66498 35047 ft 479 kts 171°
2026-05-08 17:27 21.86488 -78.65234 35052 ft 479 kts 170°
2026-05-08 17:28 21.79906 -78.63964 35052 ft 480 kts 170°
2026-05-08 17:28 21.73316 -78.62695 35050 ft 482 kts 170°
2026-05-08 17:29 21.66694 -78.61420 35041 ft 483 kts 170°
2026-05-08 17:29 21.60103 -78.60153 35046 ft 484 kts 170°
2026-05-08 17:30 21.53470 -78.58883 35047 ft 484 kts 170°
2026-05-08 17:30 21.46838 -78.57613 35044 ft 483 kts 171°
2026-05-08 17:31 21.40250 -78.56351 35046 ft 482 kts 171°
2026-05-08 17:31 21.33645 -78.55088 35046 ft 481 kts 170°
2026-05-08 17:32 21.27050 -78.53826 35040 ft 480 kts 170°
2026-05-08 17:32 21.20483 -78.52571 35045 ft 479 kts 170°
2026-05-08 17:33 21.13912 -78.51316 35044 ft 478 kts 170°
2026-05-08 17:33 21.07403 -78.50075 35049 ft 478 kts 170°
2026-05-08 17:34 21.00864 -78.48829 35044 ft 477 kts 170°
2026-05-08 17:34 20.94308 -78.47586 35051 ft 478 kts 170°
2026-05-08 17:35 20.87752 -78.46340 35046 ft 478 kts 170°
2026-05-08 17:35 20.81229 -78.45098 35045 ft 478 kts 170°
2026-05-08 17:36 20.74668 -78.43851 35051 ft 478 kts 170°
2026-05-08 17:36 20.68115 -78.42607 35046 ft 478 kts 170°
2026-05-08 17:37 20.61568 -78.41366 35049 ft 477 kts 170°
2026-05-08 17:37 20.55055 -78.40133 35044 ft 477 kts 170°
2026-05-08 17:38 20.48518 -78.38898 35046 ft 477 kts 170°
2026-05-08 17:38 20.41983 -78.37663 35040 ft 476 kts 170°
2026-05-08 17:39 20.35453 -78.36429 35037 ft 476 kts 170°
2026-05-08 17:39 20.28929 -78.35197 35042 ft 476 kts 170°
2026-05-08 17:40 20.22405 -78.33968 35034 ft 475 kts 170°
2026-05-08 17:40 20.15928 -78.32749 35038 ft 475 kts 170°
2026-05-08 17:41 20.09417 -78.31522 35039 ft 475 kts 170°
2026-05-08 17:41 20.02897 -78.30295 35037 ft 475 kts 170°
2026-05-08 17:42 19.96390 -78.29045 35038 ft 475 kts 168°
2026-05-08 17:42 19.89981 -78.27487 35029 ft 474 kts 166°
2026-05-08 17:43 19.83571 -78.25808 35027 ft 474 kts 166°
2026-05-08 17:43 19.77154 -78.24153 35026 ft 474 kts 167°
2026-05-08 17:44 19.70722 -78.22523 35028 ft 473 kts 167°
2026-05-08 17:44 19.64343 -78.20918 35024 ft 474 kts 167°
2026-05-08 17:45 19.57914 -78.19305 35020 ft 474 kts 167°
2026-05-08 17:45 19.51494 -78.17696 35014 ft 473 kts 167°
2026-05-08 17:46 19.45125 -78.16098 35020 ft 473 kts 167°
2026-05-08 17:46 19.38714 -78.14491 35023 ft 473 kts 167°
2026-05-08 17:47 19.32295 -78.12882 35008 ft 474 kts 167°
2026-05-08 17:47 19.26952 -78.11544 35014 ft 474 kts 167°
2026-05-08 17:48 19.19443 -78.09664 35012 ft 474 kts 167°
2026-05-08 17:48 19.13027 -78.08060 35008 ft 474 kts 167°
2026-05-08 17:49 19.06647 -78.06469 34995 ft 474 kts 167°
2026-05-08 17:49 19.00216 -78.04864 35008 ft 474 kts 167°
2026-05-08 17:50 18.93780 -78.03260 34997 ft 474 kts 166°
2026-05-08 17:50 18.87354 -78.01659 35000 ft 474 kts 166°
2026-05-08 17:51 18.80979 -78.00072 35004 ft 473 kts 166°
2026-05-08 17:51 18.74572 -77.98479 34997 ft 472 kts 166°
2026-05-08 17:52 18.68164 -77.96883 35002 ft 472 kts 166°
2026-05-08 17:53 18.58582 -77.94505 34985 ft 470 kts 166°
2026-05-08 17:53 18.52252 -77.92934 34987 ft 469 kts 166°
2026-05-08 17:54 18.45897 -77.91433 34991 ft 468 kts 168°
2026-05-08 17:54 18.39501 -77.90108 34986 ft 468 kts 169°
2026-05-08 17:55 18.33107 -77.88800 34991 ft 467 kts 168°
2026-05-08 17:55 18.26728 -77.87478 34986 ft 467 kts 168°
2026-05-08 17:56 18.20346 -77.86136 34993 ft 467 kts 168°
2026-05-08 17:56 18.14004 -77.84800 34986 ft 467 kts 168°
2026-05-08 17:57 18.07620 -77.83456 34987 ft 468 kts 168°
2026-05-08 17:57 18.01223 -77.82114 34987 ft 469 kts 168°
2026-05-08 17:58 17.94822 -77.80770 34998 ft 470 kts 168°
2026-05-08 17:58 17.89456 -77.79645 35227 ft 472 kts 168°
2026-05-08 17:58 17.85197 -77.78753 35625 ft 470 kts 168°
2026-05-08 17:59 17.82001 -77.78082 35916 ft 467 kts 168°
2026-05-08 17:59 17.79847 -77.77630 36065 ft 467 kts 168°
2026-05-08 17:59 17.76658 -77.76961 36246 ft 468 kts 168°
2026-05-08 17:59 17.73464 -77.76292 36412 ft 469 kts 168°
2026-05-08 18:00 17.70307 -77.75631 36579 ft 469 kts 168°
2026-05-08 18:00 17.63920 -77.74294 37007 ft 467 kts 168°
2026-05-08 18:00 17.60724 -77.73626 36980 ft 469 kts 168°
2026-05-08 18:01 17.54342 -77.72295 36983 ft 464 kts 168°
2026-05-08 18:01 17.48056 -77.70983 36986 ft 457 kts 168°
2026-05-08 18:02 17.41845 -77.69691 36980 ft 453 kts 168°
2026-05-08 18:02 17.35643 -77.68398 37003 ft 457 kts 168°
2026-05-08 18:03 17.29349 -77.67086 36999 ft 463 kts 168°
2026-05-08 18:03 17.23013 -77.65768 36994 ft 465 kts 168°
2026-05-08 18:04 17.16645 -77.64442 36991 ft 467 kts 168°
2026-05-08 18:04 17.10307 -77.63125 36988 ft 467 kts 168°
2026-05-08 18:05 17.03936 -77.61804 36988 ft 466 kts 168°
2026-05-08 18:05 16.97577 -77.60484 36990 ft 465 kts 168°
2026-05-08 18:06 16.91234 -77.59167 36988 ft 464 kts 168°
2026-05-08 18:06 16.84956 -77.57865 36991 ft 462 kts 168°
2026-05-08 18:07 16.78649 -77.56556 36987 ft 461 kts 168°
2026-05-08 18:07 16.72360 -77.55254 36990 ft 460 kts 168°
2026-05-08 18:08 16.66085 -77.53957 36987 ft 459 kts 168°
2026-05-08 18:08 16.59832 -77.52668 36990 ft 457 kts 168°
2026-05-08 18:09 16.53569 -77.51373 36995 ft 458 kts 168°
2026-05-08 18:09 16.47305 -77.50078 36992 ft 459 kts 168°
2026-05-08 18:10 16.41057 -77.48788 36992 ft 460 kts 168°
2026-05-08 18:10 16.34766 -77.47491 36993 ft 461 kts 168°
2026-05-08 18:11 16.28457 -77.46191 36991 ft 463 kts 168°
2026-05-08 18:11 16.22126 -77.44886 36983 ft 464 kts 168°
2026-05-08 18:12 16.15782 -77.43582 36981 ft 464 kts 168°
2026-05-08 18:12 16.09479 -77.42285 36982 ft 465 kts 168°
2026-05-08 18:13 16.03121 -77.40979 36981 ft 465 kts 168°
2026-05-08 18:13 15.96774 -77.39674 36982 ft 464 kts 168°
2026-05-08 18:14 15.90436 -77.38375 36970 ft 464 kts 168°
2026-05-08 18:14 15.84106 -77.37076 36959 ft 463 kts 168°
2026-05-08 18:15 15.77813 -77.35786 36963 ft 462 kts 168°
2026-05-08 18:15 15.71492 -77.34492 36960 ft 461 kts 168°
2026-05-08 18:16 15.65197 -77.33203 36963 ft 460 kts 168°
2026-05-08 18:16 15.58908 -77.31914 36966 ft 460 kts 168°
2026-05-08 18:17 15.52654 -77.30636 36959 ft 459 kts 168°
2026-05-08 18:17 15.46381 -77.29354 36951 ft 459 kts 168°
2026-05-08 18:18 15.40108 -77.28073 36955 ft 459 kts 168°
2026-05-08 18:18 15.33839 -77.26793 36955 ft 459 kts 168°
2026-05-08 18:19 15.27567 -77.25514 36952 ft 459 kts 168°
2026-05-08 18:19 15.21328 -77.24244 36952 ft 459 kts 168°
2026-05-08 18:20 15.15056 -77.22966 36953 ft 459 kts 168°
2026-05-08 18:20 15.08785 -77.21689 36959 ft 459 kts 168°
2026-05-08 18:21 15.02505 -77.20409 36955 ft 459 kts 168°
2026-05-08 18:21 14.96229 -77.19134 36948 ft 460 kts 168°
2026-05-08 18:22 14.89981 -77.17869 36944 ft 460 kts 169°
2026-05-08 18:22 14.83697 -77.16598 36946 ft 460 kts 168°
2026-05-08 18:23 14.77407 -77.15325 36945 ft 460 kts 168°
2026-05-08 18:23 14.71118 -77.14053 36945 ft 459 kts 168°
2026-05-08 18:24 14.64846 -77.12785 36943 ft 459 kts 168°
2026-05-08 18:24 14.58612 -77.11526 36948 ft 458 kts 168°
2026-05-08 18:25 14.52342 -77.10258 36943 ft 459 kts 168°
2026-05-08 18:25 14.46068 -77.08991 36933 ft 459 kts 168°
2026-05-08 18:26 14.39829 -77.07733 36941 ft 459 kts 169°
2026-05-08 18:26 14.33548 -77.06468 36931 ft 459 kts 168°
2026-05-08 18:27 14.28338 -77.05419 36931 ft 459 kts 168°
2026-05-08 18:27 14.21011 -77.03944 36935 ft 459 kts 168°
2026-05-08 18:28 14.14743 -77.02681 36937 ft 459 kts 168°
2026-05-08 18:28 14.08509 -77.01425 36918 ft 459 kts 168°
2026-05-08 18:29 14.02237 -77.00163 36929 ft 459 kts 168°
2026-05-08 18:29 13.95959 -76.98903 36931 ft 459 kts 169°
2026-05-08 18:30 13.89684 -76.97644 36921 ft 459 kts 169°
2026-05-08 18:30 13.83414 -76.96385 36933 ft 459 kts 168°
2026-05-08 18:31 13.77189 -76.95134 36917 ft 459 kts 169°
2026-05-08 18:31 13.70920 -76.93878 36919 ft 459 kts 169°
2026-05-08 18:32 13.64652 -76.92623 36921 ft 459 kts 169°
2026-05-08 18:32 13.58374 -76.91366 36922 ft 459 kts 169°
2026-05-08 18:33 13.52100 -76.90110 36918 ft 459 kts 169°
2026-05-08 18:33 13.45823 -76.88853 36909 ft 459 kts 169°
2026-05-08 18:34 13.39586 -76.87605 36905 ft 459 kts 169°
2026-05-08 18:34 13.33297 -76.86347 36894 ft 459 kts 169°
2026-05-08 18:35 13.27026 -76.85091 36903 ft 459 kts 169°
2026-05-08 18:35 13.20752 -76.83839 36888 ft 459 kts 169°
2026-05-08 18:36 13.14503 -76.82597 36882 ft 459 kts 169°
2026-05-08 18:36 13.08228 -76.81348 36873 ft 459 kts 169°
2026-05-08 18:37 13.01959 -76.80097 36881 ft 459 kts 169°
2026-05-08 18:37 12.95681 -76.78844 36879 ft 459 kts 169°
2026-05-08 18:38 12.89428 -76.77600 36881 ft 458 kts 169°
2026-05-08 18:38 12.83208 -76.76363 36868 ft 459 kts 169°
2026-05-08 18:39 12.76938 -76.75115 36867 ft 459 kts 169°
2026-05-08 18:39 12.70668 -76.73868 36873 ft 460 kts 169°
2026-05-08 18:40 12.64380 -76.72620 36872 ft 460 kts 169°
2026-05-08 18:40 12.58077 -76.71366 36871 ft 461 kts 169°
2026-05-08 18:41 12.51776 -76.70115 36864 ft 461 kts 169°
2026-05-08 18:41 12.45511 -76.68872 36860 ft 461 kts 169°
2026-05-08 18:42 12.39209 -76.67621 36860 ft 461 kts 169°
2026-05-08 18:42 12.32906 -76.66372 36860 ft 462 kts 169°
2026-05-08 18:43 12.26591 -76.65121 36860 ft 461 kts 169°
2026-05-08 18:43 12.20296 -76.63875 36860 ft 461 kts 169°
2026-05-08 18:44 12.13995 -76.62627 36850 ft 460 kts 169°
2026-05-08 18:44 12.07748 -76.61390 36854 ft 460 kts 169°
2026-05-08 18:45 12.01461 -76.60147 36852 ft 460 kts 169°
2026-05-08 18:45 11.95172 -76.58906 36849 ft 460 kts 169°
2026-05-08 18:46 11.88885 -76.57665 36854 ft 460 kts 169°
2026-05-08 18:46 11.82590 -76.56420 36848 ft 460 kts 169°
2026-05-08 18:47 11.77371 -76.55389 36856 ft 460 kts 169°
2026-05-08 18:47 11.70056 -76.53947 36852 ft 460 kts 169°
2026-05-08 18:48 11.64832 -76.52916 36853 ft 460 kts 169°
2026-05-08 18:48 11.58534 -76.51673 36846 ft 460 kts 169°
2026-05-08 18:49 11.52267 -76.50437 36844 ft 461 kts 169°
2026-05-08 18:49 11.45975 -76.49199 36844 ft 461 kts 169°
2026-05-08 18:50 11.39677 -76.47961 36840 ft 461 kts 169°
2026-05-08 18:50 11.33386 -76.46721 36842 ft 460 kts 169°
2026-05-08 18:51 11.27086 -76.45483 36841 ft 460 kts 169°
2026-05-08 18:51 11.20822 -76.44251 36829 ft 460 kts 169°
2026-05-08 18:52 11.14528 -76.43015 36831 ft 460 kts 169°
2026-05-08 18:52 11.08248 -76.41782 36833 ft 459 kts 169°
2026-05-08 18:53 11.01967 -76.40548 36833 ft 459 kts 169°
2026-05-08 18:53 10.95696 -76.39318 36833 ft 459 kts 169°
2026-05-08 18:54 10.89427 -76.38089 36833 ft 458 kts 169°
2026-05-08 18:54 10.83216 -76.36871 36827 ft 457 kts 169°
2026-05-08 18:55 10.73844 -76.35034 36831 ft 457 kts 169°
2026-05-08 18:56 10.67587 -76.33809 36834 ft 456 kts 169°
2026-05-08 18:56 10.61350 -76.32588 36832 ft 457 kts 169°
2026-05-08 18:57 10.55110 -76.31368 36838 ft 457 kts 169°
2026-05-08 18:57 10.48861 -76.30145 36836 ft 457 kts 169°
2026-05-08 18:58 10.42659 -76.28931 36831 ft 457 kts 169°
2026-05-08 18:58 10.36407 -76.27707 36836 ft 458 kts 169°
2026-05-08 18:59 10.30141 -76.26482 36835 ft 458 kts 169°
2026-05-08 18:59 10.23878 -76.25259 36834 ft 458 kts 169°
2026-05-08 19:00 10.17604 -76.24035 36831 ft 459 kts 169°
2026-05-08 19:00 10.11345 -76.22813 36827 ft 458 kts 169°
2026-05-08 19:01 10.05073 -76.21589 36835 ft 458 kts 169°
2026-05-08 19:01 9.98807 -76.20367 36832 ft 458 kts 169°
2026-05-08 19:02 9.92593 -76.19158 36829 ft 457 kts 169°
2026-05-08 19:02 9.86335 -76.17938 36833 ft 457 kts 169°
2026-05-08 19:03 9.80069 -76.16718 36838 ft 457 kts 169°
2026-05-08 19:03 9.73816 -76.15500 36836 ft 457 kts 169°
2026-05-08 19:04 9.67567 -76.14283 36833 ft 457 kts 169°
2026-05-08 19:04 9.61371 -76.13078 36838 ft 456 kts 169°
2026-05-08 19:05 9.55121 -76.11863 36840 ft 457 kts 169°
2026-05-08 19:05 9.48868 -76.10647 36828 ft 457 kts 169°
2026-05-08 19:06 9.42620 -76.09433 36833 ft 457 kts 169°
2026-05-08 19:06 9.36371 -76.08219 36830 ft 457 kts 169°
2026-05-08 19:07 9.30117 -76.07005 36834 ft 457 kts 169°
2026-05-08 19:07 9.23908 -76.05799 36833 ft 457 kts 169°
2026-05-08 19:08 9.17651 -76.04584 36838 ft 458 kts 169°
2026-05-08 19:08 9.11383 -76.03369 36835 ft 458 kts 169°
2026-05-08 19:09 9.05130 -76.02157 36832 ft 457 kts 169°
2026-05-08 19:09 8.98875 -76.00944 36832 ft 457 kts 169°
2026-05-08 19:10 8.92623 -75.99734 36830 ft 457 kts 169°
2026-05-08 19:10 8.86373 -75.98523 36837 ft 458 kts 169°
2026-05-08 19:11 8.80109 -75.97309 36836 ft 458 kts 169°
2026-05-08 19:11 8.73837 -75.96095 36830 ft 459 kts 169°
2026-05-08 19:12 8.67595 -75.94888 36835 ft 459 kts 170°
2026-05-08 19:12 8.61304 -75.93674 36836 ft 459 kts 170°
2026-05-08 19:13 8.55051 -75.92461 36830 ft 460 kts 169°
2026-05-08 19:13 8.48753 -75.91242 36825 ft 460 kts 170°
2026-05-08 19:14 8.42462 -75.90028 36816 ft 460 kts 169°
2026-05-08 19:14 8.36171 -75.88815 36814 ft 460 kts 169°
2026-05-08 19:15 8.29881 -75.87600 36819 ft 460 kts 169°
2026-05-08 19:15 8.23597 -75.86386 36827 ft 459 kts 170°
2026-05-08 19:16 8.17354 -75.85180 36826 ft 459 kts 169°
2026-05-08 19:16 8.11085 -75.83970 36832 ft 459 kts 169°
2026-05-08 19:17 8.04795 -75.82756 36838 ft 459 kts 170°
2026-05-08 19:17 7.98512 -75.81546 36830 ft 459 kts 170°
2026-05-08 19:18 7.92225 -75.80419 36749 ft 461 kts 171°
2026-05-08 19:18 7.89056 -75.79878 36476 ft 462 kts 171°
2026-05-08 19:18 7.85895 -75.79339 36229 ft 459 kts 171°
2026-05-08 19:18 7.82747 -75.78800 35990 ft 459 kts 171°
2026-05-08 19:19 7.79583 -75.78255 35738 ft 462 kts 171°
2026-05-08 19:19 7.76405 -75.77705 35487 ft 465 kts 171°
2026-05-08 19:19 7.73212 -75.77152 35252 ft 467 kts 171°
2026-05-08 19:19 7.69998 -75.76594 35009 ft 469 kts 171°
2026-05-08 19:20 7.66774 -75.76034 34755 ft 471 kts 171°
2026-05-08 19:20 7.60322 -75.74909 34265 ft 474 kts 170°
2026-05-08 19:20 7.57064 -75.74342 34013 ft 476 kts 171°
2026-05-08 19:21 7.53798 -75.73776 33771 ft 476 kts 171°
2026-05-08 19:21 7.50532 -75.73210 33532 ft 477 kts 170°
2026-05-08 19:21 7.47252 -75.72642 33279 ft 477 kts 170°
2026-05-08 19:21 7.43981 -75.72074 33027 ft 477 kts 170°
2026-05-08 19:22 7.40701 -75.71504 32779 ft 477 kts 170°
2026-05-08 19:22 7.37434 -75.70937 32532 ft 476 kts 170°
2026-05-08 19:22 7.34207 -75.70377 32285 ft 476 kts 170°
2026-05-08 19:22 7.30946 -75.69811 32038 ft 476 kts 170°
2026-05-08 19:23 7.27682 -75.69245 31791 ft 476 kts 170°
2026-05-08 19:23 7.24420 -75.68679 31542 ft 475 kts 170°
2026-05-08 19:23 7.21164 -75.68116 31296 ft 475 kts 170°
2026-05-08 19:23 7.17917 -75.67551 31045 ft 470 kts 170°
2026-05-08 19:24 7.14710 -75.66994 30790 ft 466 kts 169°
2026-05-08 19:24 7.11517 -75.66441 30545 ft 465 kts 169°
2026-05-08 19:24 7.08333 -75.65890 30291 ft 463 kts 169°
2026-05-08 19:24 7.05160 -75.65340 30041 ft 462 kts 169°
2026-05-08 19:25 7.01996 -75.64795 29799 ft 460 kts 169°
2026-05-08 19:25 6.98843 -75.64248 29548 ft 459 kts 169°
2026-05-08 19:25 6.95702 -75.63703 29297 ft 457 kts 169°
2026-05-08 19:25 6.92571 -75.63159 29048 ft 455 kts 169°
2026-05-08 19:26 6.89446 -75.62617 28790 ft 454 kts 169°
2026-05-08 19:26 6.86378 -75.62089 28236 ft 451 kts 170°
2026-05-08 19:26 6.83305 -75.61606 27791 ft 444 kts 170°
2026-05-08 19:26 6.80273 -75.61073 27252 ft 440 kts 169°
2026-05-08 19:27 6.77267 -75.60531 26730 ft 436 kts 169°
2026-05-08 19:27 6.74286 -75.60012 26210 ft 432 kts 169°
2026-05-08 19:27 6.71328 -75.59505 25689 ft 429 kts 169°
2026-05-08 19:27 6.68397 -75.59008 25169 ft 425 kts 170°
2026-05-08 19:28 6.65487 -75.58516 24652 ft 422 kts 169°
2026-05-08 19:28 6.62600 -75.58025 24139 ft 419 kts 169°
2026-05-08 19:28 6.59740 -75.57539 23637 ft 416 kts 169°
2026-05-08 19:28 6.56906 -75.57059 23187 ft 411 kts 169°
2026-05-08 19:29 6.54132 -75.56588 22705 ft 407 kts 169°
2026-05-08 19:29 6.51349 -75.56114 22217 ft 404 kts 170°
2026-05-08 19:29 6.48586 -75.55644 21714 ft 401 kts 170°
2026-05-08 19:29 6.45846 -75.55179 21221 ft 398 kts 170°
2026-05-08 19:30 6.43119 -75.54715 20728 ft 396 kts 170°
2026-05-08 19:30 6.40413 -75.54256 20244 ft 393 kts 170°
2026-05-08 19:30 6.37706 -75.53937 19729 ft 390 kts 176°
2026-05-08 19:30 6.35006 -75.53874 19255 ft 387 kts 180°
2026-05-08 19:31 6.32326 -75.53886 18772 ft 384 kts 180°
2026-05-08 19:31 6.29658 -75.53897 18221 ft 383 kts 180°
2026-05-08 19:31 6.26980 -75.53888 17567 ft 385 kts 179°
2026-05-08 19:31 6.24309 -75.53860 17038 ft 383 kts 179°
2026-05-08 19:32 6.21656 -75.53820 16547 ft 380 kts 179°
2026-05-08 19:32 6.19024 -75.53774 16060 ft 377 kts 179°
2026-05-08 19:32 6.16407 -75.53726 15582 ft 374 kts 179°
2026-05-08 19:32 6.13820 -75.53679 15113 ft 371 kts 179°
2026-05-08 19:33 6.11245 -75.53648 14658 ft 368 kts 180°
2026-05-08 19:33 6.08714 -75.53664 14408 ft 359 kts 180°
2026-05-08 19:33 6.06250 -75.53696 14231 ft 349 kts 180°
2026-05-08 19:33 6.03887 -75.53727 14093 ft 338 kts 180°
2026-05-08 19:34 6.01570 -75.53752 13965 ft 328 kts 180°
2026-05-08 19:34 5.99322 -75.53774 13857 ft 317 kts 180°
2026-05-08 19:34 5.97142 -75.53793 13731 ft 308 kts 180°
2026-05-08 19:34 5.95025 -75.53812 13621 ft 300 kts 180°
2026-05-08 19:35 5.92968 -75.53832 13501 ft 292 kts 180°
2026-05-08 19:35 5.91636 -75.53831 13429 ft 286 kts 175°
2026-05-08 19:35 5.89780 -75.53298 13296 ft 275 kts 148°
2026-05-08 19:35 5.88399 -75.52025 13130 ft 269 kts 123°
2026-05-08 19:36 5.87626 -75.50335 12934 ft 265 kts 102°
2026-05-08 19:36 5.87482 -75.48519 12744 ft 259 kts 89°
2026-05-08 19:36 5.87500 -75.46728 12550 ft 255 kts 89°
2026-05-08 19:36 5.87518 -75.44954 12330 ft 252 kts 86°
2026-05-08 19:37 5.88036 -75.43324 12114 ft 245 kts 50°
2026-05-08 19:37 5.89393 -75.42380 11853 ft 240 kts 15°
2026-05-08 19:37 5.91035 -75.42189 11576 ft 239 kts
2026-05-08 19:37 5.92690 -75.42162 11271 ft 238 kts
2026-05-08 19:38 5.94328 -75.42164 10936 ft 234 kts
2026-05-08 19:38 5.95942 -75.42177 10636 ft 230 kts 360°
2026-05-08 19:38 5.97534 -75.42189 10342 ft 227 kts
2026-05-08 19:38 5.99105 -75.42200 10048 ft 223 kts 360°
2026-05-08 19:39 6.00643 -75.42211 9759 ft 218 kts 360°
2026-05-08 19:39 6.02147 -75.42220 9457 ft 214 kts 360°
2026-05-08 19:39 6.03629 -75.42227 9176 ft 211 kts
2026-05-08 19:39 6.05086 -75.42238 8902 ft 206 kts 359°
2026-05-08 19:40 6.06497 -75.42247 8622 ft 201 kts
2026-05-08 19:40 6.07864 -75.42256 8353 ft 191 kts
2026-05-08 19:40 6.09150 -75.42264 8153 ft 177 kts
2026-05-08 19:40 6.10355 -75.42272 7879 ft 168 kts
2026-05-08 19:41 6.11539 -75.42281 7652 ft 172 kts
2026-05-08 19:41 6.12721 -75.42289 7446 ft 167 kts
2026-05-08 19:41 6.13863 -75.42299 7225 ft 165 kts
2026-05-08 19:41 6.15003 -75.42302 7006 ft 162 kts
2026-05-08 19:42 6.16021 -75.42307 6978 ft 119 kts 360°
2026-05-08 19:42 6.16642 -75.42312 6992 ft 64 kts 360°
2026-05-08 19:42 6.16963 -75.42337 7004 ft 34 kts 339°
2026-05-08 19:42 6.17092 -75.42401 7011 ft 9 kts 330°
2026-05-08 19:43 6.17142 -75.42433 7011 ft 7 kts 326°
2026-05-08 19:43 6.17184 -75.42462 7013 ft 7 kts 320°
2026-05-08 19:43 6.17186 -75.42510 7012 ft 7 kts 264°
2026-05-08 19:43 6.17182 -75.42564 7015 ft 8 kts 267°
2026-05-08 19:44 6.17197 -75.42614 7019 ft 8 kts 325°
2026-05-08 19:44 6.17249 -75.42619 7017 ft 7 kts 359°
2026-05-08 19:44 6.17300 -75.42620 7018 ft 7 kts 359°
2026-05-08 19:44 6.17348 -75.42627 7019 ft 7 kts 324°
2026-05-08 19:45 6.17363 -75.42673 7017 ft 7 kts 284°
2026-05-08 19:45 6.17384 -75.42721 7017 ft 8 kts 298°
2026-05-08 19:45 6.17412 -75.42775 7017 ft 9 kts 291°
2026-05-08 19:45 6.17384 -75.42819 7017 ft 9 kts 191°
2026-05-08 19:46 6.17324 -75.42833 7018 ft 3 kts 192°
2026-05-08 19:46 6.17323 -75.42833 7017 ft 0 kts 192°
2026-05-08 19:46 6.17313 -75.42835 7017 ft 0 kts 192°